Location: Mentone
(34.5413°N, 85.5351°W)
Time: 15:46:29
(UTC-06:00)

ADEOS Rocket - Visible Passes

Search period start: 07 February 2016 00:00
Search period end: 17 February 2016 00:00
Orbit: 858 x 1308 km, 98.7° (Epoch: 06 February)

Date Brightness Start Highest point End Pass type
(mag) Time Alt. Az. Time Alt. Az. Time Alt. Az.
07 Feb 3.5 05:07:31 10° NNE 05:12:56 56° E 05:18:41 10° S visible
08 Feb 5.4 04:19:48 10° NE 04:23:49 20° E 04:27:58 10° SE visible
08 Feb 3.1 06:04:16 10° N 06:09:29 44° WNW 06:14:58 10° SW visible
08 Feb 5.9 18:02:09 10° SW 18:06:38 19° W 18:10:52 10° NW visible
09 Feb 3.2 05:15:05 10° NNE 05:20:37 68° ESE 05:26:31 10° S visible
10 Feb 5.1 04:27:02 10° NE 04:31:32 24° E 04:36:16 10° SSE visible
10 Feb 6.1 18:10:46 10° SW 18:14:24 15° W 18:17:52 10° WNW visible
11 Feb 3.0 05:22:40 10° NNE 05:28:16 81° ESE 05:34:18 10° S visible
12 Feb 4.8 04:34:21 10° NE 04:39:14 29° E 04:44:26 10° SSE visible
12 Feb 6.4 18:19:47 10° WSW 18:22:11 12° W 18:24:31 10° WNW visible
13 Feb 2.9 05:30:17 10° NNE 05:35:56 85° WNW 05:42:03 10° SSW visible
14 Feb 4.5 04:41:45 10° NNE 04:46:57 36° E 04:52:31 10° SSE visible
15 Feb 5.9 03:55:21 10° ENE 03:57:44 12° E 04:00:12 10° ESE visible
15 Feb 2.9 05:37:56 10° N 05:43:36 72° WNW 05:49:45 10° SSW visible
16 Feb 4.2 04:49:11 10° NNE 04:54:39 43° E 05:00:33 10° S visible
